EW4120 Weather Reports


time (UTC)temp
C
wind
direction
speed
KPH
gust
KPH
rain 1hr
cm
rain 24hr
cm
rain mn
cm
humidity
%
barometer
mb
20260906105636 22 0.0 0.0 0.00 0.13 0.00 99 1014.3
20260906104515 22 0.0 1.6 0.00 0.13 0.00 99 1014.3
20260906103515 22 0.0 1.6 0.00 0.13 0.00 100 1014.3
20260906102535 22 0.0 1.6 0.00 0.13 0.00 100 1014.1
20260906101515 22 0.0 1.6 0.00 0.13 0.00 100 1014.1
20260906100515 22 0.0 1.6 0.00 0.13 0.00 100 1013.7
20260906095515 22 0.0 1.6 0.00 0.13 0.00 100 1013.7
20260906094636 21 0.0 1.6 0.00 0.13 0.00 100 1013.5
20260906093515 21 0.0 1.6 0.00 0.13 0.00 100 1013.5
20260906092515 21 23 1.6 6.4 0.00 0.13 0.00 100 1013.5
20260906091657 21 45 1.6 8.0 0.00 0.13 0.00 100 1013.3
20260906090615 21 0.0 3.2 0.00 0.13 0.00 100 1013.2
20260906085535 21 0.0 0.0 0.00 0.13 0.00 99 1012.9
20260906084615 20 0.0 0.0 0.00 0.13 0.00 99 1012.8
20260906083555 20 0.0 0.0 0.00 0.13 0.00 99 1012.7
20260906082535 20 0.0 0.0 0.00 0.15 0.00 99 1012.6
20260906081535 20 0.0 0.0 0.00 0.15 0.00 99 1012.6
20260906080535 20 0.0 1.6 0.00 0.15 0.00 99 1012.4
20260906075515 20 0.0 0.0 0.00 0.15 0.00 99 1012.3
20260906074515 20 0.0 0.0 0.00 0.15 0.00 99 1012.2
20260906073517 20 0.0 0.0 0.00 0.15 0.00 99 1012.2
20260906072537 20 0.0 0.0 0.00 0.15 0.00 99 1012.3
20260906071517 20 0.0 0.0 0.00 0.15 0.00 99 1012.4
20260906070517 20 0.0 0.0 0.00 0.15 0.00 99 1012.6
20260906065517 20 0.0 0.0 0.00 0.15 0.00 99 1013.0
20260906064517 20 0.0 0.0 0.00 0.15 0.00 99 1013.1
20260906063537 20 0.0 0.0 0.00 0.15 0.00 99 1013.0
20260906062557 20 0.0 0.0 0.00 0.15 0.00 98 1013.3
20260906061517 20 0.0 0.0 0.00 0.15 0.00 98 1013.4
20260906060537 20 0.0 1.6 0.00 0.15 0.00 98 1013.4
20260906055537 20 0.0 0.0 0.00 0.15 0.00 98 1013.5
20260906054517 20 0.0 0.0 0.00 0.15 0.00 99 1013.5
20260906053617 20 0.0 1.6 0.00 0.15 0.00 98 1013.6
20260906052537 21 0.0 0.0 0.00 0.15 0.00 98 1013.5
20260906051517 21 0.0 0.0 0.00 0.15 0.00 98 1013.7
20260906050517 21 0.0 0.0 0.00 0.15 0.00 98 1013.6
20260906045517 21 0.0 0.0 0.00 0.15 0.00 98 1013.6
20260906044517 21 0.0 0.0 0.00 0.15 0.00 98 1013.8
20260906043537 21 0.0 1.6 0.00 0.15 0.00 98 1013.9
20260906042517 21 0.0 0.0 0.00 0.15 0.00 98 1014.0
20260906041517 21 0.0 0.0 0.00 0.15 0.00 98 1014.0
20260906040537 21 0.0 0.0 0.00 0.15 0.00 98 1014.0
20260906035515 21 0.0 0.0 0.00 0.15 0.15 98 1014.0
20260906034555 21 0.0 0.0 0.00 0.15 0.15 98 1014.1
20260906033515 21 0.0 1.6 0.00 0.15 0.15 98 1014.0
20260906032515 21 0.0 0.0 0.00 0.15 0.15 98 1013.8
20260906031555 21 0.0 0.0 0.00 0.15 0.15 98 1013.7
20260906030555 21 0.0 0.0 0.00 0.15 0.15 98 1013.6
20260906025557 21 0.0 0.0 0.00 0.15 0.15 97 1013.4
20260906024517 21 0.0 0.0 0.00 0.15 0.15 98 1013.4
20260906023517 21 0.0 0.0 0.00 0.15 0.15 97 1013.3
20260906022557 21 0.0 0.0 0.00 0.15 0.15 97 1013.2
20260906021537 21 0.0 0.0 0.00 0.15 0.15 97 1013.1
20260906020537 21 0.0 0.0 0.00 0.15 0.15 97 1013.2
20260906015537 21 0.0 0.0 0.00 0.15 0.15 96 1013.1
20260906014537 21 0.0 0.0 0.00 0.15 0.15 96 1013.1
20260906013537 21 0.0 0.0 0.00 0.15 0.15 96 1013.1
20260906012517 21 0.0 0.0 0.00 0.15 0.15 96 1012.7
20260906010517 22 0.0 0.0 0.00 0.15 0.15 95 1012.8
20260906005517 22 0.0 0.0 0.00 0.15 0.15 94 1012.7
20260906004517 22 0.0 0.0 0.00 0.15 0.15 94 1012.8
20260906003517 22 0.0 0.0 0.00 0.15 0.15 93 1012.6
20260906002517 22 0.0 0.0 0.00 0.15 0.15 93 1012.6
20260906001537 23 0.0 0.0 0.00 0.15 0.15 91 1012.5
20260906000557 23 0.0 0.0 0.03 0.15 0.15 91 1012.4
20260905235517 23 0.0 0.0 0.03 0.15 0.15 90 1012.4
20260905234517 24 0.0 0.0 0.03 0.15 0.15 89 1012.1
20260905233517 25 0.0 0.0 0.03 0.15 0.15 87 1012.1
20260905232537 25 0.0 0.0 0.03 0.15 0.15 84 1012.1
20260905231517 26 0.0 0.0 0.03 0.15 0.15 82 1012.0
20260905230537 26 0.0 0.0 0.00 0.13 0.13 80 1011.9
20260905225517 27 0.0 0.0 0.00 0.13 0.13 81 1012.1
20260905224517 27 0.0 0.0 0.00 0.13 0.13 81 1012.2
20260905223517 27 0.0 0.0 0.00 0.13 0.13 83 1012.2
20260905222537 26 0.0 1.6 0.00 0.13 0.13 84 1012.2
20260905221516 26 0.0 3.2 0.00 0.13 0.13 83 1012.4
20260905220537 26 0.0 0.0 0.00 0.13 0.13 86 1012.4
20260905215516 26 0.0 1.6 0.00 0.13 0.13 85 1012.6
20260905214522 26 0.0 0.0 0.00 0.13 0.13 89 1012.7
20260905213516 25 0.0 0.0 0.00 0.13 0.13 91 1012.7
20260905212657 25 0.0 1.6 0.00 0.13 0.13 90 1012.7
20260905211536 26 0.0 0.0 0.00 0.13 0.13 90 1012.9
20260905210516 26 0.0 0.0 0.00 0.13 0.13 92 1013.0
20260905205516 25 0.0 1.6 0.00 0.13 0.13 94 1013.1
20260905204617 24 0.0 3.2 0.00 0.13 0.13 97 1012.8
20260905203537 23 0.0 1.6 0.03 0.13 0.13 97 1012.4
20260905202516 23 0.0 1.6 0.03 0.13 0.13 98 1012.0
20260905201517 23 0.0 0.0 0.03 0.13 0.13 97 1012.1
20260905200516 23 0.0 0.0 0.03 0.13 0.13 97 1012.3
20260905195516 23 0.0 3.2 0.03 0.13 0.13 97 1012.8
20260905194536 23 0.0 0.0 0.03 0.13 0.13 97 1012.8
20260905193536 22 0.0 1.6 0.00 0.13 0.10 96 1012.9
20260905192536 23 0.0 3.2 0.00 0.13 0.10 96 1012.7
20260905191516 22 0.0 0.0 0.00 0.13 0.10 95 1012.7
20260905190516 22 0.0 1.6 0.00 0.13 0.10 94 1012.5
20260905185536 23 0.0 1.6 0.00 0.13 0.10 92 1012.5
20260905184516 24 0.0 4.8 0.00 0.13 0.10 85 1012.3
20260905183516 28 45 9.7 22.5 0.00 0.13 0.10 71 1013.4
20260905182517 32 45 1.6 9.7 0.00 0.13 0.10 63 1012.7
20260905181516 33 0 1.6 6.4 0.00 0.13 0.10 63 1013.0
20260905180516 33 68 1.6 8.0 0.03 0.13 0.10 61 1013.2
20260905175616 33 45 3.2 9.7 0.03 0.13 0.10 61 1013.4
20260905174536 34 45 3.2 8.0 0.03 0.13 0.10 63 1013.3
20260905173516 33 23 4.8 14.5 0.03 0.13 0.10 62 1013.4
20260905172516 33 23 1.6 6.4 0.03 0.13 0.10 63 1013.9
20260905171556 33 45 1.6 4.8 0.03 0.13 0.10 64 1014.2
20260905170616 33 45 1.6 6.4 0.00 0.10 0.08 64 1014.4
20260905165536 33 45 1.6 8.0 0.00 0.10 0.08 67 1014.5
20260905164516 32 23 1.6 6.4 0.00 0.10 0.08 67 1014.6
20260905163516 32 23 1.6 12.9 0.00 0.10 0.08 69 1014.6
20260905162536 31 45 1.6 8.0 0.00 0.10 0.08 75 1014.6
20260905161516 31 45 1.6 6.4 0.00 0.10 0.08 73 1014.7
20260905160536 31 0.0 6.4 0.03 0.10 0.08 77 1014.8
20260905155616 30 248 1.6 6.4 0.03 0.10 0.08 77 1014.9
20260905154516 30 0.0 3.2 0.03 0.10 0.08 78 1014.9
20260905153536 30 23 1.6 4.8 0.03 0.10 0.08 78 1015.0
20260905152636 29 0.0 4.8 0.03 0.10 0.08 83 1014.9
20260905151516 28 0.0 1.6 0.03 0.10 0.08 86 1015.0
20260905150636 28 0.0 3.2 0.00 0.08 0.05 85 1015.1
20260905145536 28 0.0 3.2 0.00 0.08 0.05 87 1015.2
20260905144656 27 0.0 4.8 0.00 0.08 0.05 90 1015.2
20260905143516 27 0.0 1.6 0.00 0.08 0.05 93 1015.1
20260905142516 26 0.0 3.2 0.00 0.08 0.05 97 1015.0
20260905141556 25 0.0 4.8 0.00 0.08 0.05 97 1014.9
20260905140516 25 0.0 3.2 0.00 0.08 0.05 99 1014.9
20260905135516 24 0.0 3.2 0.00 0.08 0.05 100 1014.9
20260905134516 25 0.0 3.2 0.00 0.08 0.05 100 1014.9
20260905133556 24 0.0 1.6 0.00 0.08 0.05 100 1014.8
20260905132556 23 0.0 0.0 0.00 0.08 0.05 100 1014.7
20260905131556 23 0.0 0.0 0.00 0.08 0.05 100 1014.9
20260905130516 23 0.0 0.0 0.03 0.08 0.05 100 1015.0
20260905125516 23 0.0 0.0 0.03 0.08 0.05 100 1015.1
20260905123556 22 0.0 0.0 0.03 0.10 0.05 100 1015.1
20260905122515 22 0.0 0.0 0.03 0.10 0.05 100 1015.1
20260905121637 21 0.0 0.0 0.03 0.10 0.05 100 1015.2
20260905120515 21 0.0 3.2 0.00 0.08 0.03 99 1015.0
20260905115515 21 0.0 0.0 0.00 0.08 0.03 99 1015.1
20260905114515 21 0.0 0.0 0.00 0.08 0.03 99 1014.8
20260905113515 20 0.0 0.0 0.00 0.08 0.03 99 1014.6
20260905112536 20 0.0 0.0 0.00 0.08 0.03 99 1014.6
20260905111536 20 0.0 0.0 0.00 0.08 0.03 99 1014.4
20260905110515 20 0.0 0.0 0.00 0.08 0.03 99 1014.4